Location: Gro� Glienicke
(52.4675°N, 13.1079°E)
Time: 08:42:35
(UTC+00:00)

COSMOS 2455 - Pass Details

Date: 06 July 2020
Orbit: 898 x 911 km, 67.1° (Epoch: 05 August)

Event Time Altitude Azimuth Distance (km) Brightness Sun altitude
Rises 23:30:00 0° 319° (NW) 3,553 6.7 -14.9°
Reaches altitude 10° 23:32:38 10° 313° (NW) 2,608 5.8 -14.8°
Maximum altitude 23:38:16 43° 244° (WSW) 1,269 3.4 -14.8°
Enters shadow 23:41:47 22° 186° (S) 1,900 3.9 -14.7°
